SENTINEL-2B

Last updated on Mon Sep 15 2025 00:02:31 GMT+0000 (Coordinated Universal Time)

1 42063U 17013A 25257.33336547 .00000090 00000+0 51056-4 0 9991 2 42063 98.5629 331.0701 0001180 91.1156 269.0162 14.30820549445199
UTC large
Height (km)
Speed (km/s)
/
Latitude / Longitude
Inclination (degrees)
Orbital Period (minutes)
Azimuth
Elevation
Range (km)
Doppler Factor

Next 0 passes for location: London (51.5072 / 0.1276)

Sorry there are no passes over London.